| time (UTC) | temp C | wind direction | speed KPH | gust KPH | rain 1hr cm | rain 24hr cm | rain mn cm | humidity % | barometer mb |
| 20260504001531 | 15 | 249 | 11.3 | 30.6 | 0.00 | 0.00 | 0.00 | 44 | 1004.3 |
| 20260504000526 | 15 | 245 | 14.5 | 35.4 | 0.00 | 0.00 | 0.00 | 44 | 1004.3 |
| 20260503235522 | 16 | 251 | 12.9 | 25.7 | 0.00 | 0.00 | 0.00 | 43 | 1004.2 |
| 20260503234518 | 16 | 242 | 12.9 | 38.6 | 0.00 | 0.00 | 0.00 | 43 | 1004.3 |
| 20260503233534 | 16 | 243 | 9.7 | 20.9 | 0.00 | 0.00 | 0.00 | 43 | 1004.2 |
| 20260503232530 | 16 | 244 | 9.7 | 20.9 | 0.00 | 0.00 | 0.00 | 42 | 1004.4 |
| 20260503231526 | 16 | 241 | 8.0 | 27.4 | 0.00 | 0.00 | 0.00 | 41 | 1004.5 |
| 20260503230521 | 17 | 258 | 14.5 | 27.4 | 0.00 | 0.00 | 0.00 | 40 | 1004.3 |
| 20260503225518 | 17 | 247 | 14.5 | 29.0 | 0.00 | 0.00 | 0.00 | 39 | 1004.3 |
| 20260503224534 | 17 | 254 | 9.7 | 22.5 | 0.00 | 0.00 | 0.00 | 40 | 1004.6 |
| 20260503223530 | 17 | 237 | 16.1 | 29.0 | 0.00 | 0.00 | 0.00 | 40 | 1004.7 |
| 20260503222526 | 17 | 245 | 9.7 | 22.5 | 0.00 | 0.00 | 0.00 | 40 | 1004.9 |
| 20260503221601 | 17 | 242 | 12.9 | 30.6 | 0.00 | 0.00 | 0.00 | 40 | 1004.9 |
| 20260503220537 | 17 | 256 | 14.5 | 40.2 | 0.00 | 0.00 | 0.00 | 40 | 1004.8 |
| 20260503215553 | 17 | 238 | 12.9 | 25.7 | 0.00 | 0.00 | 0.00 | 40 | 1004.9 |
| 20260503214529 | 17 | 261 | 17.7 | 35.4 | 0.00 | 0.00 | 0.00 | 39 | 1004.8 |
| 20260503213525 | 17 | 252 | 11.3 | 22.5 | 0.00 | 0.00 | 0.00 | 39 | 1004.8 |
| 20260503212521 | 17 | 246 | 14.5 | 27.4 | 0.00 | 0.00 | 0.00 | 39 | 1005.0 |
| 20260503211517 | 17 | 248 | 16.1 | 35.4 | 0.00 | 0.00 | 0.00 | 39 | 1004.8 |
| 20260503210552 | 17 | 240 | 11.3 | 30.6 | 0.00 | 0.00 | 0.00 | 39 | 1004.8 |
| 20260503205528 | 17 | 239 | 11.3 | 24.1 | 0.00 | 0.00 | 0.00 | 38 | 1004.9 |
| 20260503204524 | 17 | 225 | 12.9 | 29.0 | 0.00 | 0.00 | 0.00 | 38 | 1004.8 |
| 20260503203520 | 17 | 248 | 19.3 | 38.6 | 0.00 | 0.00 | 0.00 | 37 | 1005.1 |
| 20260503202516 | 17 | 239 | 12.9 | 29.0 | 0.00 | 0.00 | 0.00 | 36 | 1004.9 |
| 20260503201613 | 17 | 253 | 14.5 | 27.4 | 0.00 | 0.00 | 0.00 | 36 | 1005.1 |
| 20260503200548 | 17 | 252 | 17.7 | 37.0 | 0.00 | 0.00 | 0.00 | 36 | 1005.1 |
| 20260503195544 | 17 | 252 | 12.9 | 38.6 | 0.00 | 0.00 | 0.00 | 36 | 1005.3 |
| 20260503194540 | 17 | 237 | 17.7 | 40.2 | 0.00 | 0.00 | 0.00 | 36 | 1005.5 |
| 20260503193516 | 17 | 248 | 14.5 | 33.8 | 0.00 | 0.00 | 0.00 | 36 | 1005.6 |
| 20260503192532 | 18 | 253 | 12.9 | 24.1 | 0.00 | 0.00 | 0.00 | 37 | 1005.8 |
| 20260503191548 | 17 | 245 | 16.1 | 33.8 | 0.00 | 0.00 | 0.00 | 36 | 1005.9 |
| 20260503190524 | 18 | 223 | 12.9 | 25.7 | 0.00 | 0.00 | 0.00 | 37 | 1006.1 |
| 20260503185520 | 18 | 238 | 12.9 | 29.0 | 0.00 | 0.00 | 0.00 | 37 | 1006.2 |
| 20260503184516 | 17 | 246 | 16.1 | 38.6 | 0.00 | 0.00 | 0.00 | 38 | 1006.4 |
| 20260503183532 | 16 | 257 | 16.1 | 33.8 | 0.00 | 0.00 | 0.00 | 37 | 1006.6 |
| 20260503182528 | 17 | 253 | 16.1 | 30.6 | 0.00 | 0.00 | 0.00 | 36 | 1006.7 |
| 20260503181524 | 17 | 256 | 16.1 | 30.6 | 0.00 | 0.00 | 0.00 | 37 | 1006.9 |
| 20260503180520 | 17 | 242 | 11.3 | 25.7 | 0.00 | 0.00 | 0.00 | 38 | 1006.9 |
| 20260503175516 | 17 | 266 | 17.7 | 41.8 | 0.00 | 0.00 | 0.00 | 36 | 1007.1 |
| 20260503174532 | 17 | 251 | 17.7 | 41.8 | 0.00 | 0.00 | 0.00 | 38 | 1007.2 |
| 20260503173528 | 16 | 255 | 12.9 | 24.1 | 0.00 | 0.00 | 0.00 | 38 | 1007.3 |
| 20260503172524 | 16 | 254 | 12.9 | 27.4 | 0.00 | 0.00 | 0.00 | 38 | 1007.4 |
| 20260503171520 | 16 | 259 | 12.9 | 25.7 | 0.00 | 0.00 | 0.00 | 37 | 1007.5 |
| 20260503170516 | 16 | 273 | 16.1 | 29.0 | 0.00 | 0.00 | 0.00 | 38 | 1007.6 |
| 20260503150549 | 15 | 274 | 12.9 | 27.4 | 0.00 | 0.00 | 0.00 | 39 | 1008.5 |
| 20260503130521 | 8 | 254 | 12.9 | 30.6 | 0.00 | 0.00 | 0.00 | 52 | 1009.1 |
| 20260503110534 | 3 | 245 | 6.4 | 14.5 | 0.00 | 0.00 | 0.00 | 61 | 1009.6 |
| 20260503081546 | 4 | 255 | 6.4 | 11.3 | 0.00 | 0.00 | 0.00 | 61 | 1010.5 |
| 20260503080522 | 4 | 254 | 6.4 | 12.9 | 0.00 | 0.00 | 0.00 | 61 | 1010.6 |
| 20260503072526 | 4 | 253 | 4.8 | 11.3 | 0.00 | 0.00 | 0.00 | 61 | 1010.5 |
| 20260503071522 | 4 | 253 | 6.4 | 11.3 | 0.00 | 0.00 | 0.00 | 61 | 1010.6 |
| 20260503070518 | 4 | 254 | 4.8 | 9.7 | 0.00 | 0.00 | 0.00 | 61 | 1010.5 |
| 20260503054526 | 5 | 250 | 3.2 | 9.7 | 0.00 | 0.00 | 0.00 | 59 | 1011.1 |
| 20260503053522 | 5 | 250 | 4.8 | 11.3 | 0.00 | 0.00 | 0.00 | 59 | 1011.1 |
| 20260503052538 | 5 | 246 | 4.8 | 11.3 | 0.00 | 0.00 | 0.00 | 59 | 1011.3 |
| 20260503051534 | 5 | 245 | 4.8 | 11.3 | 0.00 | 0.00 | 0.00 | 59 | 1011.3 |
| 20260503050530 | 5 | 247 | 3.2 | 6.4 | 0.00 | 0.00 | 0.00 | 58 | 1011.3 |
| 20260503045526 | 5 | 245 | 3.2 | 9.7 | 0.00 | 0.00 | 0.00 | 58 | 1011.4 |
| 20260503044522 | 5 | 231 | 3.2 | 6.4 | 0.00 | 0.00 | 0.00 | 58 | 1011.3 |
| 20260503043518 | 5 | 238 | 3.2 | 9.7 | 0.00 | 0.00 | 0.00 | 58 | 1011.4 |
| 20260503042534 | 5 | 241 | 3.2 | 6.4 | 0.00 | 0.00 | 0.00 | 58 | 1011.5 |
| 20260503041530 | 5 | 244 | 3.2 | 6.4 | 0.00 | 0.00 | 0.00 | 58 | 1011.6 |
| 20260503040526 | 5 | 245 | 3.2 | 9.7 | 0.00 | 0.00 | 0.00 | 58 | 1011.6 |
| 20260503034518 | 5 | 245 | 3.2 | 6.4 | 0.00 | 0.00 | 0.00 | 60 | 1011.6 |
| 20260503033554 | 5 | 249 | 1.6 | 3.2 | 0.00 | 0.00 | 0.00 | 61 | 1011.6 |
| 20260503032550 | 5 | 247 | 0.0 | 3.2 | 0.00 | 0.00 | 0.00 | 61 | 1011.7 |
| 20260503031526 | 5 | 251 | 0.0 | 4.8 | 0.00 | 0.00 | 0.00 | 62 | 1011.8 |
| 20260503030602 | 4 | 253 | 0.0 | 1.6 | 0.00 | 0.00 | 0.00 | 62 | 1011.8 |
| 20260503025538 | 4 | 256 | 0.0 | 1.6 | 0.00 | 0.00 | 0.00 | 62 | 1011.8 |
| 20260503024534 | 4 | 256 | 0.0 | 1.6 | 0.00 | 0.00 | 0.00 | 62 | 1011.9 |
| 20260503023530 | 4 | 0.0 | 0.0 | 0.00 | 0.00 | 0.00 | 61 | 1012.1 | |
| 20260503022526 | 4 | 256 | 0.0 | 1.6 | 0.00 | 0.00 | 0.00 | 61 | 1012.2 |
| 20260503021522 | 5 | 0.0 | 0.0 | 0.00 | 0.00 | 0.00 | 60 | 1012.2 | |
| 20260503020518 | 5 | 256 | 0.0 | 1.6 | 0.00 | 0.00 | 0.00 | 59 | 1012.0 |
| 20260503015534 | 5 | 0.0 | 0.0 | 0.00 | 0.00 | 0.00 | 58 | 1012.1 | |
| 20260503014530 | 5 | 0.0 | 0.0 | 0.00 | 0.00 | 0.00 | 57 | 1012.0 | |
| 20260503013526 | 5 | 0.0 | 0.0 | 0.00 | 0.00 | 0.00 | 56 | 1012.0 | |
| 20260503012522 | 5 | 0.0 | 0.0 | 0.00 | 0.00 | 0.00 | 55 | 1011.9 | |
| 20260503011538 | 6 | 0.0 | 0.0 | 0.00 | 0.00 | 0.00 | 54 | 1011.9 | |
| 20260503010534 | 6 | 0.0 | 0.0 | 0.00 | 0.00 | 0.00 | 53 | 1012.0 | |
| 20260503005530 | 6 | 0.0 | 0.0 | 0.00 | 0.00 | 0.00 | 52 | 1011.8 | |
| 20260503004526 | 6 | 0.0 | 0.0 | 0.00 | 0.00 | 0.00 | 52 | 1011.8 | |
| 20260503003522 | 7 | 0.0 | 0.0 | 0.00 | 0.00 | 0.00 | 50 | 1011.8 | |
| 20260503002539 | 7 | 0.0 | 0.0 | 0.00 | 0.00 | 0.00 | 49 | 1011.8 |